Location: *
(45.8589°N, 4.7139°E)
Time: 10:21:27
(UTC+00:00)

Cosmos 2333 Rocket - Pass Details

Date: 09 April 2020
Orbit: 840 x 861 km, 70.8° (Epoch: 05 June)

Event Time Altitude Azimuth Distance (km) Brightness Sun altitude
Rises 23:35:51 0° 338° (NNW) 3,406 6.2 -36.1°
Reaches altitude 10° 23:38:30 10° 347° (NNW) 2,469 5.4 -36.1°
Enters shadow 23:42:32 33° 28° (NNE) 1,399 3.6 -36.1°
